Location: Holkham
(52.9500°N, 0.8167°E)
Time: 21:30:16
(UTC+00:00)

Cosmos 2221 - Visible Passes

Search period start: 17 May 2026 00:00
Search period end: 27 May 2026 00:00
Orbit: 569 x 587 km, 82.5° (Epoch: 17 May)

Date Brightness Start Highest point End Pass type
(mag) Time Alt. Az. Time Alt. Az. Time Alt. Az.
17 May 3.6 22:11:38 21° SE 22:13:21 29° E 22:17:00 10° NNE visible
17 May 3.7 23:47:55 19° SW 23:50:18 34° WNW 23:54:10 10° N visible
18 May 3.2 22:15:46 24° SE 22:17:41 37° E 22:21:35 10° NNE visible
18 May 4.1 23:52:03 14° WSW 23:54:47 27° WNW 23:58:26 10° N visible
19 May 2.8 22:19:53 25° SSE 22:22:01 49° E 22:26:06 10° NNE visible
19 May 4.5 23:56:10 11° WSW 23:59:19 22° WNW 00:02:38 10° NNW visible
20 May 2.5 22:23:59 24° S 22:26:23 65° E 22:30:34 10° NNE visible
21 May 4.8 00:00:59 10° WSW 00:03:51 18° WNW 00:06:45 10° NNW visible
21 May 4.6 20:53:21 10° E 20:54:30 11° E 20:55:41 10° ENE visible
21 May 2.4 22:28:03 21° S 22:30:46 84° E 22:35:00 10° NNE visible
22 May 5.0 00:06:06 10° W 00:08:25 14° WNW 00:10:45 10° NNW visible
22 May 4.4 20:56:30 10° ESE 20:58:45 14° E 21:01:00 10° NE visible
22 May 2.5 22:32:07 18° SSW 22:35:10 75° WNW 22:39:25 10° N visible
23 May 5.2 00:11:33 10° WNW 00:13:01 11° WNW 00:14:28 10° NW visible
23 May 4.1 21:00:08 10° SE 21:02:59 18° E 21:05:53 10° NE visible
23 May 3.0 22:36:08 14° SSW 22:39:36 57° WNW 22:43:46 10° N visible
24 May 3.8 21:03:57 10° SE 21:07:16 23° E 21:10:36 10° NE visible
24 May 3.4 22:40:08 11° SW 22:44:02 44° WNW 22:48:06 10° N visible
25 May 3.5 21:07:55 10° SSE 21:11:34 29° E 21:15:14 10° NNE visible
25 May 3.9 22:44:39 10° SW 22:48:30 34° WNW 22:52:23 10° N visible
26 May 3.1 21:12:00 10° SSE 21:15:52 38° E 21:19:48 10° NNE visible
26 May 4.3 22:49:22 10° SW 22:52:59 27° WNW 22:56:38 10° N visible
